Location: Eschentzwiller
(47.7125°N, 7.3981°E)
Time: 00:51:46
(UTC+00:00)

USA 215 - Pass Details

Date: 27 October 2020
Orbit: 1102 x 1106 km, 123.0° (Epoch: 23 November)

Event Time Altitude Azimuth Distance (km) Brightness Sun altitude
Exits shadow 19:38:57 69° 333° (NNW) 1,175 3.4 -33.7°
Drops below altitude 10° 19:44:43 10° 307° (NW) 2,966 6.3 -34.6°
Sets 19:47:12 0° 306° (NW) 3,926 7.1 -35.0°
